Location: Newark
(50.0336°N, 22.0047°E)
Time: 20:45:47
(UTC+00:00)

N. Korean satellite - Pass Details

Date: 02 February 2020
Orbit: 456 x 505 km, 97.2° (Epoch: 26 February)

Event Time Altitude Azimuth Distance (km) Brightness Sun altitude
Rises 03:50:04 0° 21° (NNE) 2,567 10.5 -21.8°
Reaches altitude 10° 03:52:18 10° 32° (NNE) 1,690 9.7 -21.4°
Maximum altitude 03:55:34 31° 96° (E) 891 8.5 -20.9°
Drops below altitude 10° 03:58:52 10° 160° (SSE) 1,698 9.6 -20.4°
Sets 04:01:06 0° 171° (S) 2,582 10.4 -20.0°
